Location: Tamazert
(32.6352°N, 5.2072°W)
Time: 05:23:50
(UTC+00:00)

Vanguard 2 Rocket - Pass Details

Date: 07 October 2022
Orbit: 555 x 3321 km, 32.9° (Epoch: 04 December)

Event Time Altitude Azimuth Distance (km) Brightness Sun altitude
Rises 20:40:51 0° 236° (SW) 7,288 12.0 -34.8°
Reaches altitude 10° 20:45:51 10° 234° (SW) 6,266 11.5 -35.8°
Maximum altitude 21:05:22 66° 158° (SSE) 2,912 9.0 -39.7°
Enters shadow 21:05:50 66° 150° (SSE) 2,891 9.0 -39.7°
Drops below altitude 10° 21:18:16 10° 79° (E) 4,358 - -42.2°
Sets 21:21:04 0° 77° (ENE) 5,049 - -42.7°
